Pottstown, PA

12:58 PM EDT on August 18, 2017 (GMT -0400)
Pottstown Limerick

Weather History for KPTW - November, 2012

Change the Weather History Date:

Thursday, November 8, 2012

  Actual Average (KRDG) Record (KRDG)
Temperature  
Mean Temperature 45 °F -  
Max Temperature 51 °F 52 °F 74 °F (1975)
Min Temperature 39 °F 35 °F 23 °F (1993)
Degree Days  
Heating Degree Days 20    
Moisture  
Dew Point 18 °F    
Average Humidity 37    
Maximum Humidity 57    
Minimum Humidity 26    
Precipitation  
Precipitation 0.00 in - - ()
Sea Level Pressure  
Sea Level Pressure 29.89 in    
Wind  
Wind Speed 12 mph (NW)    
Max Wind Speed 20 mph    
Max Gust Speed 30 mph    
Visibility 10 miles    
Events      
Averages and records for this station are not official NWS values.
T = Trace of Precipitation, MM = Missing Value Source: NWS Daily Summary

Daily Weather History Graph

Daily Weather History Graph

Search for Another Location

Airport or City:

Trip Planner

Search our weather history database for the weather conditions in past years. The results will help you decide how hot, cold, wet, or windy it might be!

Date:

Astronomy

Nov. 08, 2012 Rise Set
Actual Time 6:40 AM EST 4:51 PM EST
Civil Twilight 6:11 AM EST 5:19 PM EST
Nautical Twilight 5:39 AM EST 5:52 PM EST
Astronomical Twilight 5:07 AM EST 6:24 PM EST
Moon 12:32 AM EST (11/8) 1:31 PM EST (11/8)
Length of Visible Light 11h 08m
Length of Day
10h 10m
Waning Crescent, 33% of the Moon is Illuminated
Nov 8
Waning Crescent
Nov 13
New
Nov 20
First Quarter
Nov 28
Full
Dec 6
Last Quarter

Hourly Weather History & Observations

Time (EST) Temp. Windchill Dew Point Humidity Pressure Visibility Wind Dir Wind Speed Gust Speed Precip Events Conditions
12:54 AM 39.0 °F 31.8 °F 25.0 °F 57% 29.85 in 10.0 mi NW 11.5 mph - N/A   Overcast
1:54 AM 39.0 °F 31.4 °F 24.1 °F 55% 29.84 in 10.0 mi NNW 12.7 mph - N/A   Overcast
2:54 AM 39.9 °F 33.4 °F 21.0 °F 47% 29.84 in 10.0 mi NNW 10.4 mph - N/A   Overcast
3:54 AM 41.0 °F 34.3 °F 18.0 °F 40% 29.83 in 10.0 mi NW 11.5 mph - N/A   Overcast
4:54 AM 39.9 °F 35.1 °F 18.0 °F 41% 29.84 in 10.0 mi NW 6.9 mph - N/A   Overcast
5:54 AM 41.0 °F 35.2 °F 18.0 °F 40% 29.84 in 10.0 mi NW 9.2 mph - N/A   Overcast
6:54 AM 39.9 °F 32.9 °F 19.0 °F 43% 29.84 in 10.0 mi NW 11.5 mph 17.3 mph N/A   Scattered Clouds
7:54 AM 41.0 °F 36.4 °F 19.9 °F 43% 29.86 in 10.0 mi NW 6.9 mph - N/A   Overcast
8:54 AM 43.0 °F 34.8 °F 17.1 °F 35% 29.86 in 10.0 mi North 18.4 mph 25.3 mph N/A   Clear
9:54 AM 44.1 °F 36.8 °F 17.1 °F 34% 29.88 in 10.0 mi NNW 16.1 mph 21.9 mph N/A   Mostly Cloudy
10:54 AM 46.0 °F 39.6 °F 17.1 °F 31% 29.88 in 10.0 mi NW 15.0 mph 21.9 mph N/A   Partly Cloudy
11:54 AM 45.0 °F 38.5 °F 18.0 °F 34% 29.87 in 10.0 mi NW 13.8 mph 23.0 mph N/A   Clear
12:54 PM 48.9 °F - 17.1 °F 28% 29.86 in 10.0 mi North 18.4 mph 26.5 mph N/A   Clear
1:54 PM 50.0 °F - 17.1 °F 27% 29.85 in 10.0 mi NW 18.4 mph 29.9 mph N/A   Clear
2:54 PM 51.1 °F - 17.1 °F 26% 29.85 in 10.0 mi NNW 13.8 mph 27.6 mph N/A   Clear
3:54 PM 50.0 °F - 18.0 °F 28% 29.85 in 10.0 mi NNW 15.0 mph 27.6 mph N/A   Clear
4:54 PM 48.0 °F - 18.0 °F 30% 29.88 in 10.0 mi NW 15.0 mph 23.0 mph N/A   Clear
5:54 PM 46.0 °F 41.0 °F 16.0 °F 30% 29.92 in 10.0 mi NNW 10.4 mph - N/A   Clear
6:54 PM 45.0 °F 37.6 °F 14.0 °F 29% 29.94 in 10.0 mi NNW 17.3 mph 26.5 mph N/A   Clear
7:54 PM 44.1 °F 35.9 °F 14.0 °F 30% 29.96 in 10.0 mi NNW 19.6 mph 27.6 mph N/A   Clear
8:54 PM 42.1 °F 36.1 °F 15.1 °F 34% 29.98 in 10.0 mi NW 10.4 mph 21.9 mph N/A   Clear
9:54 PM 39.9 °F 33.9 °F 16.0 °F 38% 30.00 in 10.0 mi NNW 9.2 mph 19.6 mph N/A   Clear
10:54 PM 39.0 °F 34.8 °F 17.1 °F 41% 30.01 in 10.0 mi NW 5.8 mph 16.1 mph N/A   Clear
11:54 PM 39.0 °F 33.4 °F 18.0 °F 43% 30.01 in 10.0 mi NW 8.1 mph 17.3 mph N/A   Clear